Location: Eschentzwiller
(47.7125°N, 7.3981°E)
Time: 23:26:44
(UTC+00:00)

Cosmos 1328 - Pass Details

Date: 27 October 2020
Orbit: 533 x 550 km, 82.5° (Epoch: 26 November)

Event Time Altitude Azimuth Distance (km) Brightness Sun altitude
Rises 16:54:43 0° 348° (NNW) 2,694 7.3 -6.4°
Reaches altitude 10° 16:56:53 10° 346° (NNW) 1,798 6.5 -6.8°
Maximum altitude 17:00:48 68° 264° (W) 582 4.2 -7.4°
Drops below altitude 10° 17:04:42 10° 181° (S) 1,787 6.6 -8.1°
Sets 17:06:51 0° 179° (S) 2,675 7.5 -8.4°
